Minot, ND

4:24 AM CDT on April 24, 2018 (GMT -0500)
Minot International

Weather History for KMOT - February, 2013

Change the Weather History Date:

Friday, February 22, 2013

  Actual Average Record
Temperature  
Mean Temperature 15 °F 19 °F  
Max Temperature 24 °F 27 °F 57 °F (2002)
Min Temperature 5 °F 11 °F -25 °F (1918)
Degree Days  
Heating Degree Days 50 46  
Month to date heating degree days 1079 1076  
Since 1 July heating degree days 6480 6308  
Moisture  
Dew Point 10 °F    
Average Humidity 82    
Maximum Humidity 92    
Minimum Humidity 71    
Precipitation  
Precipitation T in 0.02 in 0.75 in (1961)
Month to date precipitation 0.43 0.30  
Year to date precipitation 0.54 0.81  
Sea Level Pressure  
Sea Level Pressure 30.00 in    
Wind  
Wind Speed 5 mph (SE)    
Max Wind Speed 13 mph    
Max Gust Speed 15 mph    
Visibility 8 miles    
Events      
T = Trace of Precipitation, MM = Missing Value Source: NWS Daily Summary

Daily Weather History Graph

Daily Weather History Graph

Search for Another Location

Airport or City:

Astronomy

Feb. 22, 2013 Rise Set
Actual Time 7:39 AM CST 6:18 PM CST
Civil Twilight 7:07 AM CST 6:50 PM CST
Nautical Twilight 6:31 AM CST 7:26 PM CST
Astronomical Twilight 5:55 AM CST 8:02 PM CST
Moon 3:23 PM CST (2/22) 5:35 AM CST (2/22)
Length of Visible Light 11h 43m
Length of Day
10h 39m
Waxing Gibbous, 90% of the Moon is Illuminated
Feb 22
Waxing Gibbous
Feb 25
Full
Mar 4
Last Quarter
Mar 11
New
Mar 19
First Quarter

Hourly Weather History & Observations

Time (CST) Temp. Windchill Dew Point Humidity Pressure Visibility Wind Dir Wind Speed Gust Speed Precip Events Conditions
12:54 AM 12.9 °F - 7.0 °F 77% 30.13 in 10.0 mi Calm Calm - N/A   Overcast
1:54 AM 10.9 °F 1.4 °F 6.1 °F 81% 30.14 in 10.0 mi SE 5.8 mph - N/A   Clear
2:54 AM 10.9 °F 2.9 °F 7.0 °F 84% 30.12 in 10.0 mi SE 4.6 mph - N/A   Overcast
3:54 AM 9.0 °F 0.6 °F 5.0 °F 84% 30.11 in 10.0 mi SSE 4.6 mph - N/A   Scattered Clouds
4:54 AM 12.9 °F 3.8 °F 8.1 °F 81% 30.09 in 10.0 mi SE 5.8 mph - N/A   Overcast
5:54 AM 10.0 °F 1.8 °F 7.0 °F 87% 30.09 in 8.0 mi ESE 4.6 mph - 0.00 in   Mostly Cloudy
6:54 AM 10.9 °F 0.2 °F 7.0 °F 84% 30.10 in 10.0 mi ESE 6.9 mph - N/A   Overcast
7:54 AM 10.9 °F 4.7 °F 7.0 °F 84% 30.08 in 10.0 mi ESE 3.5 mph - N/A   Scattered Clouds
8:54 AM 12.9 °F 5.2 °F 8.1 °F 81% 30.07 in 9.0 mi SE 4.6 mph - N/A   Overcast
9:54 AM 14.0 °F 3.9 °F 10.0 °F 84% 30.06 in 9.0 mi SSE 6.9 mph - N/A   Clear
10:30 AM 17.6 °F 5.7 °F 12.2 °F 79% 29.94 in 10.0 mi SSE 10.4 mph - N/A   Mostly Cloudy
10:52 AM 17.6 °F 8.2 °F 12.2 °F 79% 29.94 in 9.0 mi SSE 6.9 mph - N/A   Scattered Clouds
10:54 AM 18.0 °F 8.7 °F 12.0 °F 78% 30.04 in 9.0 mi SSE 6.9 mph - N/A   Partly Cloudy
11:54 AM 21.0 °F 10.6 °F 14.0 °F 74% 30.03 in 5.0 mi SSW 9.2 mph - N/A   Haze
12:54 PM 23.0 °F 15.8 °F 16.0 °F 74% 30.01 in 10.0 mi SSW 5.8 mph - N/A   Mostly Cloudy
1:54 PM 23.0 °F 14.7 °F 16.0 °F 74% 29.98 in 5.0 mi SE 6.9 mph - N/A   Haze
2:54 PM 23.0 °F 17.0 °F 17.1 °F 78% 29.96 in 9.0 mi ESE 4.6 mph - N/A   Clear
3:54 PM 23.0 °F 14.7 °F 16.0 °F 74% 29.94 in 10.0 mi SSE 6.9 mph - N/A   Clear
4:54 PM 21.9 °F 11.0 °F 15.1 °F 75% 29.94 in 10.0 mi SSE 10.4 mph - N/A   Clear
5:54 PM 21.0 °F 11.4 °F 15.1 °F 78% 29.94 in 10.0 mi SSE 8.1 mph - N/A   Clear
6:54 PM 17.1 °F 10.0 °F 12.0 °F 81% 29.93 in 10.0 mi SE 4.6 mph - N/A   Clear
7:54 PM 14.0 °F 3.9 °F 10.9 °F 88% 29.93 in 9.0 mi SE 6.9 mph - N/A   Clear
8:54 PM 12.0 °F - 10.0 °F 92% 29.91 in 5.0 mi Calm Calm - N/A   Clear
9:54 PM 10.9 °F 2.9 °F 8.1 °F 88% 29.89 in 5.0 mi SSE 4.6 mph - N/A   Clear
10:54 PM 8.1 °F - 3.9 °F 83% 29.89 in 5.0 mi Calm Calm - N/A   Clear
11:54 PM 7.0 °F - 3.9 °F 87% 29.86 in 5.0 mi Calm Calm - N/A   Clear